Regional Weather Roundup
Issued by NWS Mt. Holly, NJ

Home | Current Version | Previous Version | Text Only | Print | Product List | Glossary On
Versions: 1 2 3 4 5 6 7 8 9 10 11 12 13 14 15 16 17 18 19 20 21 22 23 24 25 26 27 28 29 30 31 32 33 34 35 36 37 38 39 40 41 42 43 44 45 46 47 48 49 50
000
ASUS41 KPHI 281512
RWRPHI

REGIONAL WEATHER ROUNDUP
NATIONAL WEATHER SERVICE MOUNT HOLLY NJ
1100 AM EDT WED JUN 28 2017

NOTE:  "FAIR" INDICATES FEW OR NO CLOUDS BELOW 12,000 FEET WITH NO
SIGNIFICANT WEATHER AND/OR OBSTRUCTIONS TO VISIBILITY.

 * = STATION DOES NOT REPORT PRECIPITATION (E.G. RAIN, SNOW, ETC.)
        OR FOG.

NJZ015>026-281600-
SOUTHERN NEW JERSEY

CITY           SKY/WX    TMP DP  RH WIND       PRES   REMARKS
POMONA         SUNNY     74  50  42 NW12      30.16R
WILDWOOD*      SUNNY     72  51  47 NW7       30.18R
MILLVILLE      SUNNY     73  53  49 N8        30.17R
WRIGHTSTOWN    SUNNY     72  51  46 N5        30.13R
MOUNT HOLLY    SUNNY     72  49  44 NW5       30.16R
TRENTON        SUNNY     72  50  45 NW9       30.15R

$$
NJZ001>014-281600-
NORTHERN NEW JERSEY

CITY           SKY/WX    TMP DP  RH WIND       PRES   REMARKS
SUSSEX         MOSUNNY   70  51  51 W9        30.12S
ANDOVER*         N/A     68  50  52 VRB6      30.13F
MORRISTOWN     MOSUNNY   70  48  46 NW10G18   30.13S
NEWARK         MOSUNNY   73  49  42 VRB5      30.12S
TETERBORO      SUNNY     71  48  43 VRB5      30.11S
CALDWELL       MOSUNNY   73  48  41 NW6       30.13S
SOMERVILLE     SUNNY     73  53  49 VRB6      30.12S
ALLAIRE*       SUNNY     73  48  41 NW8       30.15S
TOMS RIVER*    SUNNY     73  48  41 NW7       30.16R

$$
PAZ043-044-047-054-055-060>062-066>071-281600-
EASTERN PENNSYLVANIA

CITY           SKY/WX    TMP DP  RH WIND       PRES   REMARKS
PHILADELPHIA   MOSUNNY   73  46  38 NW10      30.17R
NORTH PHILA    SUNNY     75  51  43 W10       30.17R
BLUE BELL*     SUNNY     70  50  49 NW5       30.18S
DOYLESTOWN     SUNNY     72  50  45 NW7       30.15R
QUAKERTOWN*    SUNNY     72  48  43 W6        30.17S
PERKASIE*      FAIR      70  48  46 NW7       30.17S
POTTSTOWN      SUNNY     71  46  40 NW7       30.18R
LANCASTER      SUNNY     72  52  49 W8        30.18R
COATESVILLE    SUNNY     70  50  49 W8        30.20R
READING        SUNNY     72  53  51 W10       30.16S
ALLENTOWN      SUNNY     72  51  47 W10       30.15S
MOUNT POCONO   MOSUNNY   64  46  52 NW13G22   30.15S
HAZLETON         N/A     70  48  46 W7        30.21R
LEHIGHTON      FAIR      70  46  43 W7        30.16S
WILKES BARRE   MOSUNNY   69  52  54 SW8       30.14S

$$
DEZALL-MDZ008-012-015-019-020-281600-
DELAWARE AND EASTERN MARYLAND

CITY           SKY/WX    TMP DP  RH WIND       PRES   REMARKS
WILMINGTON     SUNNY     74  50  42 W8        30.18R
DOVER          SUNNY     74  53  47 NW9       30.17R
GEORGETOWN     SUNNY     74  48  39 VRB5      30.19R
EASTON         SUNNY     73  46  38 N7        30.23R
ABERDEEN       SUNNY     74  47  38 CALM      30.19S
PATUXENT       MOSUNNY   73  53  49 CALM      30.20R
OCEAN CITY     SUNNY     75  52  44 N9        30.18R
WALLOPS ISLAND SUNNY     75  50  41 NW12      30.19R
CAMBRIDGE      SUNNY     73  50  43 NW7G14    30.20R
SALISBURY      SUNNY     75  50  41 NW10      30.18R

$$
PAZ001-021-NYZ056-072-MDZ011-DCZ001-281600-
OTHER NEARBY LOCATIONS

CITY           SKY/WX    TMP DP  RH WIND       PRES   REMARKS
HARRISBURG     SUNNY     73  50  44 NW6       30.18R
STATE COLLEGE  MOSUNNY   70  50  49 W9        30.18F
WILLIAMSPORT   SUNNY     70  51  51 W10       30.15S
BINGHAMTON     SUNNY     64  52  64 W10       30.13R
NEW YORK CITY  SUNNY     71  49  45 VRB6      30.15R
BALTIMORE      MOSUNNY   75  48  38 NW9       30.19S
WASHINGTON DC  MOSUNNY   76  47  35 VRB7      30.21R

$$



USA.gov is the U.S. government's official web portal to all federal, state and local government web resources and services.